User: anonymous   Login
Location: Unspecified
(0.0000°N, 0.0000°E)
Time: 12:41:55
(UTC+00:00)
Language:

Cosmos 80 Rocket - Orbit

View from above orbital plane
View from above orbital plane
View from above satellite
View from above satellite

Ground track
Ground track

The orbit data is extracted from the following two-line orbital elements,

1 01575U 65070F   22336.50125522 -.00000098  00000-0 -13655-5 0  9998
2 01575  56.1264  40.1867 0099742 131.2176 242.2020 12.56984575628226
Epoch (UTC): 02 December 2022 12:01:48
Eccentricity: 0.0099742
inclination: 56.1264°
perigee height: 1357 km
apogee height: 1513 km
right ascension of ascending node: 40.1867°
argument of perigee: 131.2176°
revolutions per day: 12.56984575
mean anomaly at epoch: 242.2020°
orbit number at epoch: 62822

The dashed part of the orbit path shows where the satellite is in the earth's shadow,  

DLR